Voltar ao catálogo

LEMUR 2 EMERSONROSE

AtivoCiênciaSSO
NORAD 63261·PAYLOAD·🇺🇸 United States

Lançado Mar 15, 2025 de Vandenberg Space Force Base

Loading…

Próximas Passagens (próximas 24 horas)

TLE

AtualizadoSource: Space-Track

Época: Sep 14, 2026, 12:28 UTC

1 63261U 25052BD  26257.51962445  .00003777  00000-0  31128-3 0  9992
2 63261  97.6763 149.6138 0005305  98.9717 261.2107 14.99637091 82125

Acompanhe LEMUR 2 EMERSONROSE em tempo real com AllMySat

Download on the App Store